Time,TemperatureF,DewpointF,PressureIn,WindDirection,WindDirectionDegrees,WindSpeedMPH,WindSpeedGustMPH,Humidity,HourlyPrecipIn,Conditions,Clouds,dailyrainin,SolarRadiationWatts/m^2,SoftwareType,DateUTC
2013-01-28 00:00:00,13.0,12.0,-100.00,West,259,4.0,6.0,94,0.01,,,-99.99,0.000000,,2013-01-28 07:00:00,
2013-01-28 00:31:00,13.0,12.0,-100.00,West,259,4.0,6.0,94,0.01,,,-99.99,0.000000,,2013-01-28 07:31:00,
2013-01-28 00:41:00,13.0,12.0,-100.00,West,259,4.0,6.0,94,0.01,,,-99.99,0.000000,,2013-01-28 07:41:00,
2013-01-28 00:51:00,13.0,12.0,-100.00,West,259,4.0,6.0,94,0.01,,,-99.99,0.000000,,2013-01-28 07:51:00,
2013-01-28 01:00:00,12.0,11.0,-100.00,West,259,3.0,5.0,94,0.01,,,-99.99,0.000000,,2013-01-28 08:00:00,
2013-01-28 01:32:00,12.0,11.0,-100.00,West,259,3.0,5.0,94,0.01,,,-99.99,0.000000,,2013-01-28 08:32:00,
2013-01-28 01:42:00,12.0,11.0,-100.00,West,259,3.0,5.0,94,0.01,,,-99.99,0.000000,,2013-01-28 08:42:00,
2013-01-28 01:52:00,12.0,11.0,-100.00,West,259,3.0,5.0,94,0.01,,,-99.99,0.000000,,2013-01-28 08:52:00,
2013-01-28 03:00:00,11.0,9.0,-100.00,WSW,258,5.0,7.0,93,0.00,,,-99.99,0.000000,,2013-01-28 10:00:00,
2013-01-28 03:31:00,11.0,9.0,-100.00,WSW,258,5.0,7.0,93,0.00,,,-99.99,0.000000,,2013-01-28 10:31:00,
2013-01-28 03:41:00,11.0,9.0,-100.00,WSW,258,5.0,7.0,93,0.00,,,-99.99,0.000000,,2013-01-28 10:41:00,
2013-01-28 03:51:00,11.0,9.0,-100.00,WSW,258,5.0,7.0,93,0.00,,,-99.99,0.000000,,2013-01-28 10:51:00,
2013-01-28 04:00:00,9.0,8.0,-100.00,West,260,4.0,6.0,93,0.02,,,-99.99,0.000000,,2013-01-28 11:00:00,
2013-01-28 04:32:00,9.0,8.0,-100.00,West,260,4.0,6.0,93,0.02,,,-99.99,0.000000,,2013-01-28 11:32:00,
2013-01-28 04:42:00,9.0,8.0,-100.00,West,260,4.0,6.0,93,0.02,,,-99.99,0.000000,,2013-01-28 11:42:00,
2013-01-28 04:52:00,9.0,8.0,-100.00,West,260,4.0,6.0,93,0.02,,,-99.99,0.000000,,2013-01-28 11:52:00,
2013-01-28 05:00:00,9.0,7.0,-100.00,NNW,340,1.0,2.0,92,0.00,,,-99.99,0.000000,,2013-01-28 12:00:00,
2013-01-28 05:32:00,9.0,7.0,-100.00,NNW,340,1.0,2.0,92,0.00,,,-99.99,0.000000,,2013-01-28 12:32:00,
2013-01-28 05:42:00,9.0,7.0,-100.00,NNW,340,1.0,2.0,92,0.00,,,-99.99,0.000000,,2013-01-28 12:42:00,
2013-01-28 05:52:00,9.0,7.0,-100.00,NNW,340,1.0,2.0,92,0.00,,,-99.99,0.000000,,2013-01-28 12:52:00,
2013-01-28 06:00:00,8.0,6.0,-100.00,West,272,1.0,2.0,92,0.01,,,-99.99,0.000000,,2013-01-28 13:00:00,
2013-01-28 06:33:00,8.0,6.0,-100.00,West,272,1.0,2.0,92,0.01,,,-99.99,0.000000,,2013-01-28 13:33:00,
2013-01-28 06:42:00,8.0,6.0,-100.00,West,272,1.0,2.0,92,0.01,,,-99.99,0.000000,,2013-01-28 13:42:00,
2013-01-28 06:52:00,8.0,6.0,-100.00,West,272,1.0,2.0,92,0.01,,,-99.99,0.000000,,2013-01-28 13:52:00,
2013-01-28 07:00:00,7.0,5.0,-100.00,North,0,0.0,0.0,92,0.00,,,-99.99,0.000000,,2013-01-28 14:00:00,
2013-01-28 07:33:00,7.0,5.0,-100.00,North,0,0.0,0.0,92,0.00,,,-99.99,0.000000,,2013-01-28 14:33:00,
2013-01-28 07:42:00,7.0,5.0,-100.00,North,0,0.0,0.0,92,0.00,,,-99.99,0.000000,,2013-01-28 14:42:00,
2013-01-28 07:52:00,7.0,5.0,-100.00,North,0,0.0,0.0,92,0.00,,,-99.99,0.000000,,2013-01-28 14:52:00,
2013-01-28 08:00:00,6.0,4.0,-100.00,NNW,344,0.0,1.0,91,0.00,,,-99.99,1.030000,,2013-01-28 15:00:00,
2013-01-28 08:33:00,6.0,4.0,-100.00,NNW,344,0.0,1.0,91,0.00,,,-99.99,1.030000,,2013-01-28 15:33:00,
2013-01-28 08:43:00,6.0,4.0,-100.00,NNW,344,0.0,1.0,91,0.00,,,-99.99,1.030000,,2013-01-28 15:43:00,
2013-01-28 08:52:00,6.0,4.0,-100.00,NNW,344,0.0,1.0,91,0.00,,,-99.99,1.030000,,2013-01-28 15:52:00,
2013-01-28 09:00:00,10.0,8.0,-100.00,North,356,1.0,1.0,92,0.00,,,-99.99,38.099998,,2013-01-28 16:00:00,
2013-01-28 09:32:00,10.0,8.0,-100.00,North,356,1.0,1.0,92,0.00,,,-99.99,38.099998,,2013-01-28 16:32:00,
2013-01-28 09:42:00,10.0,8.0,-100.00,North,356,1.0,1.0,92,0.00,,,-99.99,38.099998,,2013-01-28 16:42:00,
2013-01-28 09:52:00,10.0,8.0,-100.00,North,356,1.0,1.0,92,0.00,,,-99.99,38.099998,,2013-01-28 16:52:00,
2013-01-28 10:32:00,20.0,19.0,-100.00,SSE,157,1.0,2.0,94,0.00,,,-99.99,145.899994,,2013-01-28 17:32:00,
2013-01-28 11:00:00,16.0,14.0,-100.00,WSW,258,5.0,7.0,93,0.00,,,-99.99,218.699997,,2013-01-28 18:00:00,
2013-01-28 11:33:00,16.0,14.0,-100.00,WSW,258,5.0,7.0,93,0.00,,,-99.99,218.699997,,2013-01-28 18:33:00,
2013-01-28 11:42:00,16.0,14.0,-100.00,WSW,258,5.0,7.0,93,0.00,,,-99.99,218.699997,,2013-01-28 18:42:00,
2013-01-28 11:52:00,16.0,14.0,-100.00,WSW,258,5.0,7.0,93,0.00,,,-99.99,218.699997,,2013-01-28 18:52:00,
2013-01-28 12:00:00,12.0,11.0,-100.00,WSW,251,3.0,5.0,93,0.00,,,-99.99,154.300003,,2013-01-28 19:00:00,
2013-01-28 12:32:00,12.0,11.0,-100.00,WSW,251,3.0,5.0,93,0.00,,,-99.99,154.300003,,2013-01-28 19:32:00,
2013-01-28 12:42:00,12.0,11.0,-100.00,WSW,251,3.0,5.0,93,0.00,,,-99.99,154.300003,,2013-01-28 19:42:00,
2013-01-28 12:52:00,12.0,11.0,-100.00,WSW,251,3.0,5.0,93,0.00,,,-99.99,154.300003,,2013-01-28 19:52:00,
2013-01-28 13:00:00,13.0,11.0,-100.00,WSW,242,3.0,6.0,92,0.00,,,-99.99,113.699997,,2013-01-28 20:00:00,
2013-01-28 13:33:00,13.0,11.0,-100.00,WSW,242,3.0,6.0,92,0.00,,,-99.99,113.699997,,2013-01-28 20:33:00,
2013-01-28 13:42:00,13.0,11.0,-100.00,WSW,242,3.0,6.0,92,0.00,,,-99.99,113.699997,,2013-01-28 20:42:00,
2013-01-28 13:52:00,13.0,11.0,-100.00,WSW,242,3.0,6.0,92,0.00,,,-99.99,113.699997,,2013-01-28 20:52:00,
2013-01-28 14:00:00,12.0,10.0,-100.00,WSW,254,4.0,7.0,92,0.00,,,-99.99,115.000000,,2013-01-28 21:00:00,
2013-01-28 14:33:00,12.0,10.0,-100.00,WSW,254,4.0,7.0,92,0.00,,,-99.99,115.000000,,2013-01-28 21:33:00,
2013-01-28 14:42:00,12.0,10.0,-100.00,WSW,254,4.0,7.0,92,0.00,,,-99.99,115.000000,,2013-01-28 21:42:00,
2013-01-28 14:52:00,12.0,10.0,-100.00,WSW,254,4.0,7.0,92,0.00,,,-99.99,115.000000,,2013-01-28 21:52:00,
2013-01-28 15:00:00,11.0,9.0,-100.00,WSW,239,4.0,7.0,92,0.00,,,-99.99,114.800003,,2013-01-28 22:00:00,
2013-01-28 15:32:00,11.0,9.0,-100.00,WSW,239,4.0,7.0,92,0.00,,,-99.99,114.800003,,2013-01-28 22:32:00,
2013-01-28 15:42:00,11.0,9.0,-100.00,WSW,239,4.0,7.0,92,0.00,,,-99.99,114.800003,,2013-01-28 22:42:00,
2013-01-28 15:52:00,11.0,9.0,-100.00,WSW,239,4.0,7.0,92,0.00,,,-99.99,114.800003,,2013-01-28 22:52:00,
2013-01-28 16:00:00,9.0,7.0,-100.00,WSW,252,4.0,7.0,92,0.00,,,-99.99,61.020000,,2013-01-28 23:00:00,
2013-01-28 16:32:00,9.0,7.0,-100.00,WSW,252,4.0,7.0,92,0.00,,,-99.99,61.020000,,2013-01-28 23:32:00,
2013-01-28 16:42:00,9.0,7.0,-100.00,WSW,252,4.0,7.0,92,0.00,,,-99.99,61.020000,,2013-01-28 23:42:00,
2013-01-28 16:52:00,9.0,7.0,-100.00,WSW,252,4.0,7.0,92,0.00,,,-99.99,61.020000,,2013-01-28 23:52:00,
2013-01-28 17:00:00,8.0,6.0,-100.00,WSW,256,4.0,7.0,91,0.00,,,-99.99,22.790001,,2013-01-29 00:00:00,
2013-01-28 17:32:00,8.0,6.0,-100.00,WSW,256,4.0,7.0,91,0.00,,,-99.99,22.790001,,2013-01-29 00:32:00,
2013-01-28 17:42:00,8.0,6.0,-100.00,WSW,256,4.0,7.0,91,0.00,,,-99.99,22.790001,,2013-01-29 00:42:00,
2013-01-28 17:52:00,8.0,6.0,-100.00,WSW,256,4.0,7.0,91,0.00,,,-99.99,22.790001,,2013-01-29 00:52:00,
2013-01-28 18:00:00,7.0,5.0,-100.00,SW,230,2.0,6.0,91,0.00,,,-99.99,2.630000,,2013-01-29 01:00:00,
2013-01-28 18:32:00,7.0,5.0,-100.00,SW,230,2.0,6.0,91,0.00,,,-99.99,2.630000,,2013-01-29 01:32:00,
2013-01-28 18:42:00,7.0,5.0,-100.00,SW,230,2.0,6.0,91,0.00,,,-99.99,2.630000,,2013-01-29 01:42:00,
2013-01-28 18:52:00,7.0,5.0,-100.00,SW,230,2.0,6.0,91,0.00,,,-99.99,2.630000,,2013-01-29 01:52:00,
2013-01-28 19:00:00,7.0,5.0,-100.00,SW,230,1.0,3.0,91,0.00,,,-99.99,0.000000,,2013-01-29 02:00:00,
2013-01-28 19:32:00,7.0,5.0,-100.00,SW,230,1.0,3.0,91,0.00,,,-99.99,0.000000,,2013-01-29 02:32:00,
2013-01-28 19:41:00,7.0,5.0,-100.00,SW,230,1.0,3.0,91,0.00,,,-99.99,0.000000,,2013-01-29 02:41:00,
2013-01-28 19:52:00,7.0,5.0,-100.00,SW,230,1.0,3.0,91,0.00,,,-99.99,0.000000,,2013-01-29 02:52:00,
2013-01-28 20:00:00,7.0,5.0,-100.00,West,271,2.0,3.0,91,0.00,,,-99.99,0.000000,,2013-01-29 03:00:00,
2013-01-28 20:32:00,7.0,5.0,-100.00,West,271,2.0,3.0,91,0.00,,,-99.99,0.000000,,2013-01-29 03:32:00,
2013-01-28 20:42:00,7.0,5.0,-100.00,West,271,2.0,3.0,91,0.00,,,-99.99,0.000000,,2013-01-29 03:42:00,
2013-01-28 20:52:00,7.0,5.0,-100.00,West,271,2.0,3.0,91,0.00,,,-99.99,0.000000,,2013-01-29 03:52:00,
2013-01-28 21:00:00,6.0,5.0,-100.00,West,269,2.0,3.0,91,0.00,,,-99.99,0.000000,,2013-01-29 04:00:00,
2013-01-28 21:32:00,6.0,5.0,-100.00,West,269,2.0,3.0,91,0.00,,,-99.99,0.000000,,2013-01-29 04:32:00,
2013-01-28 21:41:00,6.0,5.0,-100.00,West,269,2.0,3.0,91,0.00,,,-99.99,0.000000,,2013-01-29 04:41:00,
2013-01-28 21:51:00,6.0,5.0,-100.00,West,269,2.0,3.0,91,0.00,,,-99.99,0.000000,,2013-01-29 04:51:00,
2013-01-28 22:00:00,7.0,5.0,-100.00,West,260,3.0,5.0,92,0.00,,,-99.99,0.000000,,2013-01-29 05:00:00,
2013-01-28 22:32:00,7.0,5.0,-100.00,West,260,3.0,5.0,92,0.00,,,-99.99,0.000000,,2013-01-29 05:32:00,
2013-01-28 22:42:00,7.0,5.0,-100.00,West,260,3.0,5.0,92,0.00,,,-99.99,0.000000,,2013-01-29 05:42:00,
2013-01-28 22:52:00,7.0,5.0,-100.00,West,260,3.0,5.0,92,0.00,,,-99.99,0.000000,,2013-01-29 05:52:00,
2013-01-28 23:00:00,7.0,5.0,-100.00,WSW,255,5.0,8.0,92,0.00,,,-99.99,0.000000,,2013-01-29 06:00:00,
2013-01-28 23:31:00,7.0,5.0,-100.00,WSW,255,5.0,8.0,92,0.00,,,-99.99,0.000000,,2013-01-29 06:31:00,
2013-01-28 23:41:00,7.0,5.0,-100.00,WSW,255,5.0,8.0,92,0.00,,,-99.99,0.000000,,2013-01-29 06:41:00,
2013-01-28 23:52:00,7.0,5.0,-100.00,WSW,255,5.0,8.0,92,0.00,,,-99.99,0.000000,,2013-01-29 06:52:00,